[[{"header":{"parameterUnit":"m.s-1","parameterCategory":1,"la1":30.2991,"la2":30.254,"lo1":-89.0895,"lo2":-89.0444,"dy":0.0017,"dx":0.0017,"nx":28,"ny":28,"refTime":"2024-03-19T09:00:00:Z","depth":0,"parameterNumber":2,"parameterNumberName":"U-component_of_WINDS"},"data":[0,0,0,0,0,0,0,0,0,0,0,0,0,0,0,0,0,0,0,0,0,0,0,0,0,0,0,0,0,0,0,0,0,0,0,0,0,0,0,0,0,0,0,0,0,0,0,0,0,0,0,0,0,0,0,0,0,0,-0.7618,-0.7618,0,-0.7581,-0.7581,-0.7581,-0.751,-0.7509,-0.7508,-0.7506,-0.7471,-0.7471,-0.7472,0,0,0,0,0,0,0,0,0,0,0,0,0,-0.7631,-0.7631,-0.7618,-0.7618,-0.7618,-0.7582,-0.7581,-0.7581,-0.7511,-0.7509,-0.7507,-0.7506,-0.7471,-0.7471,-0.7472,0,0,0,0,0,0,0,0,0,0,0,0,0,-0.7613,-0.7631,-0.7619,-0.7578,-0.7574,-0.7582,-0.7581,-0.758,-0.7511,-0.7509,-0.7507,-0.7505,-0.7471,-0.7471,-0.7472,-0.7516,0,0,-0.7473,-0.7474,0,0,0,0,0,0,0,0,-0.7614,-0.7613,-0.7585,-0.7581,-0.7577,-0.7548,-0.7572,-0.7559,-0.7512,-0.7535,-0.7506,-0.7504,-0.7499,-0.7497,-0.7494,-0.7515,-0.7513,-0.7474,-0.7474,-0.7474,-0.7474,0,0,0,0,0,0,0,-0.7616,-0.7614,-0.7604,-0.7584,-0.7579,-0.7563,-0.7558,-0.757,-0.7529,-0.7533,-0.7528,-0.7524,-0.7496,-0.7494,-0.7493,-0.7513,-0.7474,-0.7474,-0.7474,-0.7474,-0.7569,-0.7571,0,0,0,0,0,0,-0.7622,-0.7615,-0.7605,-0.7603,-0.7591,-0.7564,-0.7559,-0.756,-0.7529,-0.7522,-0.7526,-0.7521,-0.7494,-0.7493,-0.7492,-0.7543,-0.7474,-0.7475,-0.7475,-0.7566,-0.7569,-0.7571,0,0,0,0,0,0,-0.7623,-0.7622,-0.7607,-0.7608,-0.7604,-0.7566,-0.7568,-0.756,-0.7558,-0.7523,-0.7516,-0.7531,-0.7493,-0.7491,-0.7511,-0.754,-0.7475,-0.7475,-0.7564,-0.7567,-0.757,-0.7645,0,0,0,0,0,0,-0.7623,-0.7623,-0.7639,-0.7608,-0.7605,-0.7626,-0.7569,-0.7561,-0.7559,-0.7552,-0.7526,-0.752,-0.7491,-0.751,-0.7511,-0.754,-0.7476,-0.7561,-0.7565,-0.7569,-0.7639,-0.765,-0.7659,0,0,0,0,0,-0.7624,-0.7661,-0.764,-0.7639,-0.7624,-0.7628,-0.7625,-0.759,-0.7561,-0.7578,-0.7555,-0.7521,-0.7537,-0.7513,-0.7513,-0.7543,-0.7559,-0.7564,-0.7569,-0.7635,-0.7648,-0.7659,0,0,0,0,0,0,-0.7697,-0.7657,-0.7632,-0.766,-0.7648,-0.7616,-0.7635,-0.7605,-0.7601,-0.7595,-0.7552,-0.7547,-0.7573,-0.7559,-0.7534,-0.7585,-0.7542,-0.7548,-0.7593,-0.7605,-0.7614,-0.7618,-0.7476,0,0,0,0,0,-0.7716,-0.7722,-0.7686,-0.7715,-0.771,-0.7674,-0.7674,-0.7648,-0.7633,-0.7628,-0.7607,-0.7595,-0.7598,-0.76,-0.76,-0.7637,-0.7631,-0.7657,-0.7667,-0.7675,-0.7681,-0.7701,-0.7712,-0.7588,-0.7588,-0.7587,0,0,-0.7756,-0.7734,-0.7741,-0.7729,-0.7716,-0.7724,-0.767,-0.768,-0.7686,-0.763,-0.7648,-0.7632,-0.7616,-0.7645,-0.7656,-0.7634,-0.7714,-0.7681,-0.7688,-0.7689,-0.7707,-0.7719,-0.7729,-0.7591,-0.759,-0.759,0,0,-0.7833,-0.7817,-0.7839,-0.7827,-0.7808,-0.7784,-0.7789,-0.7762,-0.7749,-0.7766,-0.7724,-0.7731,-0.7735,-0.7726,-0.7722,-0.7795,-0.7764,-0.7797,-0.7849,-0.7869,-0.7879,-0.7887,-0.7915,-0.7926,-0.7802,-0.7802,-0.7802,0,-0.7885,-0.7895,-0.7855,-0.7868,-0.7865,-0.7813,-0.7836,-0.7827,-0.7809,-0.7809,-0.7784,-0.7789,-0.7774,-0.7801,-0.7819,-0.7817,-0.7823,-0.78,-0.788,-0.7888,-0.7896,-0.7922,-0.7933,-0.7806,-0.7806,-0.7805,-0.7805,0,-0.7961,-0.7968,-0.7989,-0.7973,-0.7971,-0.799,-0.7953,-0.7957,-0.7931,-0.791,-0.7928,-0.7908,-0.7904,-0.7908,-0.7883,-0.7932,-0.7919,-0.7888,-0.7845,-0.7913,-0.7937,-0.7946,-0.7812,-0.7811,-0.7809,-0.7808,0,0,-0.8084,-0.8045,-0.8053,-0.8046,-0.8021,-0.8026,-0.8043,-0.8038,-0.8042,-0.8032,-0.8046,-0.805,-0.8022,-0.8017,-0.799,-0.8007,-0.8069,-0.7974,-0.7973,-0.7994,-0.8124,-0.8149,-0.8161,-0.8048,-0.8049,-0.8051,-0.8126,0,-0.8157,-0.8182,-0.8146,-0.818,-0.8187,-0.8138,-0.8152,-0.814,-0.812,-0.8124,-0.8102,-0.8107,-0.8068,-0.8065,-0.808,-0.8059,-0.8095,-0.8052,-0.8062,-0.8063,-0.8069,-0.8173,-0.8199,-0.8271,-0.8135,-0.8136,-0.8137,0,-0.8246,-0.8239,-0.8274,-0.8247,-0.8249,-0.8262,-0.8256,-0.8259,-0.8244,-0.8229,-0.8224,-0.8191,-0.8207,-0.8164,-0.8185,-0.8157,-0.8159,-0.8149,-0.8151,-0.8152,-0.8105,-0.8179,-0.8293,-0.8304,-0.8151,-0.815,-0.8149,0,-0.8334,-0.8334,-0.8354,-0.8349,-0.8319,-0.833,-0.8318,-0.83,-0.8299,-0.8294,-0.8293,-0.8289,-0.8288,-0.8286,-0.8255,-0.8226,-0.8281,-0.8235,-0.827,-0.8271,-0.8285,-0.8285,-0.8403,-0.8283,-0.8283,-0.8283,-0.8283,0,-0.842,-0.8444,-0.8394,-0.8407,-0.8432,-0.8391,-0.8417,-0.84,-0.8385,-0.8395,-0.8352,-0.8362,-0.8318,-0.8324,-0.8299,-0.8322,-0.8321,-0.831,-0.8304,-0.8315,-0.8317,-0.8317,-0.8312,-0.8286,-0.8285,-0.8284,-0.8284,0,-0.8524,-0.8491,-0.8511,-0.848,-0.8473,-0.8493,-0.8467,-0.8479,-0.8456,-0.8469,-0.847,-0.8435,-0.844,-0.8407,-0.8406,-0.8389,-0.8425,-0.8409,-0.843,-0.8426,-0.8464,-0.8461,-0.8587,-0.8603,-0.8471,-0.8473,-0.8474,0,-0.8583,-0.8599,-0.857,-0.8573,-0.8563,-0.8569,-0.8568,-0.8528,-0.853,-0.8514,-0.8527,-0.8528,-0.8527,-0.8537,-0.8513,-0.8512,-0.8497,-0.8541,-0.8496,-0.8508,-0.85,-0.85,-0.8502,-0.8551,-0.8553,-0.8554,-0.8555,0,-0.869,-0.8673,-0.8673,-0.8668,-0.8668,-0.8663,-0.8654,-0.8659,-0.8616,-0.862,-0.8624,-0.8623,-0.8622,-0.8624,-0.8618,-0.8607,-0.8575,-0.8569,-0.8577,-0.859,-0.8603,-0.8599,-0.8458,-0.8567,-0.8565,-0.8565,-0.8564,-0.8563,-0.8774,-0.8787,-0.8769,-0.8771,-0.876,-0.8753,-0.8763,-0.8741,-0.8744,-0.8739,-0.8715,-0.8724,-0.8709,-0.8698,-0.869,-0.8697,-0.8676,-0.8688,-0.8691,-0.8695,-0.8703,-0.86,-0.8695,-0.8695,-0.8695,-0.8694,-0.8694,0,-0.8881,-0.8867,-0.8869,-0.8858,-0.886,-0.8828,-0.8817,-0.8821,-0.8829,-0.8817,-0.8817,-0.8822,-0.8824,-0.8799,-0.8799,-0.8809,-0.8795,-0.8811,-0.881,-0.8809,-0.872,-0.8714,-0.8823,-0.8822,-0.8822,-0.8822,-0.8822,-0.8822,-0.8937,-0.8958,-0.8939,-0.8955,-0.894,-0.8948,-0.8945,-0.8939,-0.8929,-0.8937,-0.8938,-0.8921,-0.8905,-0.8902,-0.8903,-0.8896,-0.8899,-0.892,-0.8909,-0.8827,-0.8815,-0.8803,-0.8797,-0.8921,-0.8921,-0.8996,-0.8997,-0.8998]},{"header":{"parameterUnit":"m.s-1","parameterCategory":1,"la1":30.2991,"la2":30.254,"lo1":-89.0895,"lo2":-89.0444,"dy":0.0017,"dx":0.0017,"nx":28,"ny":28,"refTime":"2024-03-19T09:00:00:Z","depth":0,"parameterNumber":3,"parameterNumberName":"V-component_of_WINDS"},"data":[0,0,0,0,0,0,0,0,0,0,0,0,0,0,0,0,0,0,0,0,0,0,0,0,0,0,0,0,0,0,0,0,0,0,0,0,0,0,0,0,0,0,0,0,0,0,0,0,0,0,0,0,0,0,0,0,0,0,-0.9015,-0.9015,0,-0.903,-0.9031,-0.9031,-0.9006,-0.9005,-0.9005,-0.9004,-0.902,-0.9021,-0.9022,0,0,0,0,0,0,0,0,0,0,0,0,0,-0.8965,-0.8966,-0.9015,-0.9015,-0.9015,-0.903,-0.9031,-0.9031,-0.9006,-0.9005,-0.9004,-0.9003,-0.9019,-0.9021,-0.9022,0,0,0,0,0,0,0,0,0,0,0,0,0,-0.8984,-0.8966,-0.9015,-0.9005,-0.9004,-0.903,-0.9031,-0.9031,-0.9007,-0.9005,-0.9004,-0.9003,-0.9019,-0.9021,-0.9022,-0.9059,0,0,-0.9028,-0.9029,0,0,0,0,0,0,0,0,-0.8983,-0.8986,-0.9006,-0.9006,-0.9005,-0.9015,-0.9019,-0.904,-0.9007,-0.9006,-0.9004,-0.9002,-0.9019,-0.9021,-0.9027,-0.906,-0.906,-0.9028,-0.9029,-0.903,-0.903,0,0,0,0,0,0,0,-0.8982,-0.8985,-0.9021,-0.9007,-0.9006,-0.9,-0.9001,-0.9023,-0.9019,-0.9006,-0.9004,-0.9006,-0.9019,-0.9025,-0.9027,-0.906,-0.9028,-0.903,-0.9031,-0.9031,-0.9126,-0.9127,0,0,0,0,0,0,-0.8981,-0.8984,-0.9021,-0.9022,-0.8991,-0.9002,-0.9003,-0.9013,-0.9019,-0.9019,-0.9007,-0.9005,-0.9022,-0.9025,-0.9027,-0.9072,-0.903,-0.9032,-0.9033,-0.9125,-0.9126,-0.9128,0,0,0,0,0,0,-0.898,-0.8985,-0.902,-0.9002,-0.9006,-0.9004,-0.9015,-0.9014,-0.902,-0.902,-0.9019,-0.9014,-0.9021,-0.9025,-0.9052,-0.9072,-0.9032,-0.9034,-0.9123,-0.9125,-0.9127,-0.9161,0,0,0,0,0,0,-0.8979,-0.8985,-0.8999,-0.9003,-0.9007,-0.9044,-0.9016,-0.9015,-0.9024,-0.9021,-0.9027,-0.9026,-0.9021,-0.9049,-0.9053,-0.9074,-0.9035,-0.9121,-0.9124,-0.9126,-0.9158,-0.9164,-0.9169,0,0,0,0,0,-0.8977,-0.9007,-0.8999,-0.9004,-0.9025,-0.9045,-0.9048,-0.9041,-0.9025,-0.904,-0.9039,-0.9026,-0.9069,-0.9052,-0.9057,-0.9078,-0.912,-0.9123,-0.9126,-0.9156,-0.9163,-0.9169,0,0,0,0,0,0,-0.9005,-0.9007,-0.8999,-0.9031,-0.9038,-0.9041,-0.9059,-0.9048,-0.906,-0.9057,-0.9048,-0.9049,-0.9079,-0.9081,-0.9062,-0.9115,-0.9092,-0.9096,-0.9113,-0.912,-0.9125,-0.9125,-0.9037,0,0,0,0,0,-0.9015,-0.9031,-0.9032,-0.906,-0.9065,-0.9061,-0.907,-0.9064,-0.9071,-0.9074,-0.9076,-0.9083,-0.9098,-0.9109,-0.9122,-0.9158,-0.916,-0.9175,-0.918,-0.9185,-0.919,-0.921,-0.9218,-0.9138,-0.9138,-0.9138,0,0,-0.9035,-0.9038,-0.9049,-0.9066,-0.9071,-0.9089,-0.9064,-0.9083,-0.9097,-0.9077,-0.9103,-0.9105,-0.9112,-0.9144,-0.9158,-0.9147,-0.9211,-0.9189,-0.9193,-0.9195,-0.9214,-0.9222,-0.9228,-0.9141,-0.914,-0.914,0,0,-0.9082,-0.9085,-0.911,-0.9116,-0.9124,-0.9121,-0.9127,-0.9132,-0.9133,-0.9159,-0.9144,-0.916,-0.9186,-0.9193,-0.9199,-0.925,-0.9239,-0.9254,-0.9284,-0.9304,-0.931,-0.9316,-0.9336,-0.9343,-0.9258,-0.9258,-0.9258,0,-0.9107,-0.9133,-0.9124,-0.9145,-0.9154,-0.9136,-0.9162,-0.9167,-0.918,-0.9186,-0.9173,-0.9206,-0.921,-0.9244,-0.9256,-0.9261,-0.9269,-0.9254,-0.931,-0.9316,-0.9321,-0.934,-0.9347,-0.926,-0.926,-0.926,-0.926,0,-0.9164,-0.9182,-0.9201,-0.9214,-0.9224,-0.9248,-0.9243,-0.9254,-0.9247,-0.9246,-0.9273,-0.9277,-0.9293,-0.93,-0.9292,-0.9333,-0.9326,-0.9312,-0.9289,-0.933,-0.9348,-0.9355,-0.9263,-0.9262,-0.9262,-0.9261,0,0,-0.9229,-0.9237,-0.9245,-0.9251,-0.9259,-0.9273,-0.9296,-0.9311,-0.9322,-0.933,-0.935,-0.9373,-0.936,-0.9367,-0.9361,-0.9378,-0.942,-0.9362,-0.9362,-0.9375,-0.9468,-0.948,-0.9489,-0.9412,-0.9413,-0.9414,-0.9468,0,-0.9278,-0.9318,-0.9311,-0.9349,-0.9367,-0.9351,-0.9371,-0.9378,-0.9378,-0.9393,-0.9392,-0.941,-0.939,-0.9395,-0.9411,-0.9412,-0.9439,-0.9407,-0.9432,-0.9433,-0.9433,-0.9498,-0.9511,-0.9561,-0.9474,-0.9476,-0.9476,0,-0.934,-0.9352,-0.9393,-0.9399,-0.9406,-0.9425,-0.9439,-0.9453,-0.9461,-0.946,-0.9469,-0.9459,-0.9482,-0.9458,-0.949,-0.9469,-0.9478,-0.948,-0.9482,-0.9486,-0.9459,-0.9505,-0.9576,-0.9585,-0.9487,-0.9486,-0.9485,0,-0.9387,-0.9413,-0.9441,-0.9447,-0.9454,-0.9468,-0.9471,-0.9478,-0.9488,-0.95,-0.9506,-0.9521,-0.9529,-0.954,-0.9535,-0.9517,-0.957,-0.9544,-0.957,-0.9571,-0.9584,-0.9584,-0.966,-0.9586,-0.9586,-0.9586,-0.9586,0,-0.9443,-0.9469,-0.9463,-0.948,-0.9509,-0.9501,-0.953,-0.9531,-0.9538,-0.9556,-0.9541,-0.9559,-0.955,-0.9567,-0.9562,-0.9592,-0.9595,-0.9595,-0.9594,-0.9598,-0.9598,-0.9605,-0.9603,-0.9588,-0.9587,-0.9587,-0.9587,0,-0.9501,-0.9497,-0.9528,-0.9532,-0.9534,-0.9555,-0.9559,-0.9576,-0.9575,-0.9598,-0.9603,-0.9601,-0.962,-0.9615,-0.9636,-0.9633,-0.967,-0.9664,-0.9668,-0.9667,-0.9695,-0.9693,-0.978,-0.9792,-0.9709,-0.9709,-0.971,0,-0.9538,-0.9558,-0.9565,-0.9577,-0.9582,-0.96,-0.961,-0.9602,-0.9614,-0.9625,-0.9641,-0.9658,-0.9673,-0.9704,-0.9705,-0.9721,-0.9716,-0.9745,-0.9718,-0.9722,-0.9719,-0.9719,-0.9722,-0.9751,-0.9752,-0.9753,-0.9753,0,-0.9605,-0.9603,-0.9619,-0.9634,-0.9647,-0.9659,-0.9669,-0.9679,-0.9672,-0.9685,-0.9705,-0.9716,-0.9738,-0.9756,-0.9771,-0.9775,-0.9764,-0.9762,-0.9769,-0.9774,-0.9777,-0.9778,-0.9685,-0.976,-0.976,-0.9759,-0.9759,-0.9758,-0.9656,-0.9674,-0.9682,-0.97,-0.9707,-0.9717,-0.9734,-0.9735,-0.9751,-0.9769,-0.9762,-0.9785,-0.9794,-0.9813,-0.9818,-0.9837,-0.9826,-0.9836,-0.9839,-0.9842,-0.9847,-0.9772,-0.9839,-0.9839,-0.9838,-0.9838,-0.9838,0,-0.9724,-0.9729,-0.9746,-0.9761,-0.9776,-0.9763,-0.9774,-0.9788,-0.9808,-0.9817,-0.9831,-0.9855,-0.9873,-0.9874,-0.9892,-0.9906,-0.9901,-0.9911,-0.9911,-0.9913,-0.9854,-0.9847,-0.9915,-0.9915,-0.9915,-0.9915,-0.9915,-0.9915,-0.9762,-0.9792,-0.9791,-0.9824,-0.9828,-0.9851,-0.9859,-0.9869,-0.9876,-0.9903,-0.9918,-0.9919,-0.9925,-0.9943,-0.9959,-0.9959,-0.9967,-0.998,-0.9978,-0.9924,-0.9916,-0.9909,-0.9903,-0.9981,-0.9981,-1.0035,-1.0036,-1.0036]}]]